RH
22 20 22 23 25 27 26 29 42 49 35 30 28 29 34 46 80 87 85 78 78 82 87 84 64 54 41 43 44 42 45 54 83 99 99 99 99 98 90 84 82 82 80 80
67 35 28 32 44 26 28 32 35 33 36 26 24 34 43 56 55 67 67 61 60 64 72 59 41 36 36 42 46 42 43 46 46 47 48 70 75 78 72 83 81 80 81 78
56 30 25 40 62 55 29 25 27 35 29 40 49 40 51 52 52 53 55 61 71 66 56 48 44 40 47 43 47 47 45 43 45 48 50 53 52 56 65 67 74 78 78 76
54 42 60 43 20 21 23 22 20 19 19 38 56 43 54 53 50 54 56 54 63 86 68 55 49 49 49 42 50 60 58 51 50 51 53 54 56 56 64 64 68 71 77 72
63 49 35 25 21 24 28 30 23 24 31 34 34 39 60 50 47 50 48 52 58 68 76 63 56 48 52 57 53 58 79 80 59 59 60 62 65 65 62 67 74 81 78 79
56 58 56 35 20 24 27 45 35 37 43 42 39 64 76 68 61 51 44 44 53 56 51 46 47 47 58 69 77 69 70 80 86 72 79 78 74 77 71 65 77 83 84 85
65 62 41 23 21 27 51 57 45 40 39 46 59 63 66 56 55 49 41 41 42 42 40 37 36 40 49 58 79 60 44 48 66 73 88 88 85 74 82 81 79 85 86 87
58 63 65 25 31 44 41 37 32 33 42 54 58 66 66 65 66 44 38 35 34 34 32 31 30 32 32 35 32 32 34 41 42 48 43 45 70 73 74 80 87 87 83 84
43 51 50 42 50 42 34 35 40 44 43 49 67 84 86 86 68 44 34 33 29 29 31 29 25 25 29 32 28 27 29 32 36 36 36 39 50 59 68 70 75 76 79 84
52 43 30 34 30 30 31 39 38 41 48 54 70 74 75 67 59 44 32 29 25 28 30 32 29 27 33 30 27 27 30 33 36 36 38 37 36 47 58 66 69 71 81 88
53 42 34 30 33 39 42 40 38 44 46 50 59 72 66 62 53 40 30 26 24 29 33 32 29 32 30 29 27 26 30 34 41 44 41 42 48 55 57 76 65 76 85 87
78 55 52 48 48 46 45 44 42 43 50 48 49 60 57 59 50 38 31 28 26 27 31 28 29 31 31 29 27 32 38 42 54 52 53 49 50 64 63 71 63 63 63 79
43 36 44 56 49 36 43 43 44 49 47 51 49 52 52 52 46 46 32 28 28 30 31 32 34 38 43 49 49 53 46 45 56 60 58 62 68 70 82 78 66 63 65 63
27 28 35 29 34 32 31 43 52 47 46 48 48 49 54 51 50 46 38 32 27 29 35 38 57 83 84 81 84 87 83 75 79 83 86 86 87 90 91 92 93 96 84 72
31 28 29 26 25 24 44 48 53 54 51 53 52 55 57 62 60 50 44 38 38 43 59 73 82 87 77 78 79 81 70 83 90 90 91 88 91 90 90 88 89 90 88 83
26 24 23 27 26 32 48 52 58 60 62 61 60 62 66 63 53 48 41 35 37 48 54 79 80 83 81 82 86 85 86 78 76 88 89 87 88 86 84 85 84 86 89 89
37 38 34 36 44 50 54 59 62 69 68 70 77 76 72 71 77 80 83 84 83 87 85 85 92 93 91 88 88 82 82 78 73 77 80 81 83 82 82 86 88 86 89 90
32 33 32 34 55 67 70 73 73 70 72 78 81 87 84 76 78 83 87 86 88 88 86 89 91 94 93 91 85 69 70 65 64 71 66 79 74 71 81 80 76 79 84 80
35 32 34 49 57 69 71 73 75 73 87 88 87 86 82 82 83 87 90 90 90 90 93 89 87 83 76 77 58 57 65 68 60 59 67 73 86 77 84 85 84 87 84 86
48 51 61 68 73 73 87 94 92 92 89 88 89 88 89 88 87 89 90 88 80 74 85 80 71 62 62 64 64 56 66 74 56 76 84 81 89 91 89 78 84 87 91 90
99 100 100 100 100 99 97 93 93 95 92 89 89 90 90 89 88 88 89 77 90 83 75 77 67 63 54 56 53 76 82 86 86 84 86 90 90 87 89 90 90 91 91 92
100 100 100 99 98 98 98 95 91 94 93 92 89 89 94 94 91 86 83 78 78 80 71 68 62 67 62 67 62 83 74 75 81 85 88 89 89 90 91 91 92 90 90 92
100 98 98 97 96 98 97 95 93 91 90 92 94 93 88 83 78 79 79 76 72 77 68 81 84 83 81 87 88 87 85 85 86 86 89 91 90 92 91 91 90 91 92 91
96 92 96 94 92 92 95 96 90 91 92 91 91 88 81 82 80 66 69 75 77 82 94 90 89 87 89 90 89 89 88 85 87 89 90 93 92 91 90 91 92 91 92 90
92 92 89 90 84 87 84 79 78 79 80 76 77 74 68 67 82 80 82 84 92 89 92 92 88 88 90 89 88 88 88 90 92 90 90 90 90 92 91 92 92 92 93 92
82 82 78 72 73 71 68 67 72 72 70 83 80 82 83 90 90 89 90 89 89 88 90 92 90 91 89 87 86 86 86 85 88 91 90 88 89 89 90 91 91 91 93 93
72 74 66 67 62 63 65 68 77 78 81 88 88 92 94 94 93 90 89 92 92 92 92 93 90 88 89 86 86 84 86 92 99 90 89 90 90 91 92 91 92 93 93 94
Wind_Speed
12 13 13 14 14 11 15 15 15 17 15 17 17 18 10 9 14 13 10 10 9 8 6 5 5 4 2 4 4 5 6 5 3 4 2 2 3 2 4 8 11 10 12 14
4 12 14 18 11 16 17 17 18 20 19 18 15 11 11 5 9 13 11 12 11 10 8 7 6 4 4 5 4 5 6 6 7 8 8 5 5 6 8 7 9 12 11 15
12 13 14 14 10 12 17 16 16 15 16 11 10 11 11 9 6 8 10 10 11 10 9 6 5 4 3 5 5 6 6 7 8 8 8 8 9 9 9 9 9 12 14 13
9 10 15 9 14 13 15 12 15 13 15 8 3 7 8 9 3 7 11 12 10 6 7 6 5 5 3 5 8 7 7 7 8 7 8 8 9 9 8 9 10 11 12 14
8 9 13 17 12 12 13 13 9 11 10 10 7 3 8 5 6 5 8 11 10 8 6 4 5 5 6 6 6 7 6 5 7 8 7 8 8 9 8 7 7 8 9 12
7 10 8 9 2 10 5 6 8 8 7 8 12 9 2 4 5 7 10 11 11 11 9 8 6 7 8 6 3 4 6 5 2 4 5 5 6 6 7 7 7 5 8 8
10 10 11 13 6 7 7 2 4 3 7 8 6 4 5 7 6 7 9 11 12 12 10 9 9 8 8 8 3 2 5 6 4 2 4 3 2 4 4 4 5 6 7 7
12 14 16 13 1 5 3 4 6 6 3 6 7 6 5 7 8 9 10 11 10 8 7 7 8 7 7 6 7 6 6 6 5 4 4 5 6 6 5 5 4 5 8 7
9 5 6 7 7 8 11 8 5 5 7 5 2 6 8 8 9 9 11 9 9 8 8 6 6 5 8 5 6 6 6 6 5 5 5 5 7 7 6 8 6 7 7 7
5 3 6 6 4 8 7 6 6 3 4 4 5 9 9 10 9 8 10 10 8 10 9 7 5 3 8 5 5 5 5 4 5 4 4 6 6 6 5 5 6 6 7 7
8 8 10 10 8 5 6 9 8 3 4 6 7 12 12 10 11 10 10 9 8 8 8 8 8 7 6 5 4 6 5 4 4 4 4 5 5 4 5 4 5 4 4 5
5 7 8 9 7 5 10 7 9 6 5 6 7 12 12 10 10 10 9 9 8 8 8 9 9 7 6 4 4 5 4 5 3 3 3 3 2 5 7 7 7 8 9 6
13 12 13 8 11 15 7 7 7 7 7 8 8 9 12 9 10 9 10 9 9 9 8 9 8 7 6 6 6 7 6 4 3 4 3 3 3 3 2 3 4 4 6 11
15 15 16 16 10 14 7 5 5 6 6 7 8 9 10 10 9 9 9 9 8 9 9 9 11 8 6 7 6 5 5 4 3 3 3 3 3 2 2 2 1 4 5 10
17 17 17 16 17 14 8 7 8 8 6 5 6 8 10 10 9 8 8 6 7 9 8 11 10 6 6 5 5 3 3 4 2 2 3 1 2 2 2 2 2 2 2 8
17 17 17 16 16 8 10 9 9 8 6 5 7 10 10 9 9 9 8 8 9 9 9 8 8 6 4 4 4 4 3 4 1 1 1 2 2 2 2 3 3 3 5 5
17 14 13 14 6 6 9 8 8 6 7 7 9 10 9 9 9 9 9 8 10 10 10 9 7 4 4 2 3 2 3 5 1 1 3 3 3 2 2 2 2 3 4 2
18 17 14 13 8 7 7 9 7 9 8 10 12 10 11 12 11 10 10 11 10 8 7 8 7 5 3 3 3 3 2 2 2 2 2 3 3 2 2 3 4 4 3 3
12 16 14 8 7 9 11 10 9 9 11 11 12 12 11 10 12 11 11 10 9 9 8 9 10 8 7 4 2 2 3 2 2 3 2 2 2 2 3 3 3 3 4 4
10 4 12 9 9 11 10 10 12 12 12 12 11 12 11 11 11 11 10 9 8 6 12 10 10 8 8 5 2 4 3 2 2 3 3 3 4 2 2 2 2 3 3 4
10 12 14 13 12 12 12 11 13 12 11 12 12 11 11 11 11 11 10 8 6 12 11 11 7 6 5 5 3 4 3 3 2 2 2 2 1 2 2 2 3 3 3 3
8 10 11 11 11 11 9 10 11 11 11 10 10 10 12 11 10 9 6 6 9 10 8 7 6 7 7 3 4 4 3 3 3 2 2 1 1 2 3 3 3 4 3 3
8 9 9 9 10 10 10 9 9 10 11 10 11 11 10 8 8 8 7 10 9 9 7 7 9 10 6 3 4 3 4 2 2 2 1 2 2 3 2 3 3 2 3 4
8 8 9 10 10 10 10 8 8 8 7 9 8 9 9 8 7 5 8 11 12 9 9 8 8 8 4 4 3 3 3 3 3 2 5 2 1 2 2 2 2 3 3 4
8 8 9 9 9 7 11 11 10 10 10 10 10 8 9 6 6 7 9 10 16 11 9 8 8 5 4 4 4 4 2 3 4 3 2 3 2 2 2 3 2 3 2 2
10 7 7 8 7 8 8 8 7 7 8 8 7 6 5 7 8 9 9 11 10 12 8 6 5 4 4 4 4 2 3 5 3 2 3 0 2 0 2 3 2 2 2 2
6 6 6 6 6 6 7 7 8 8 8 8 8 6 8 9 9 9 10 9 8 8 7 6 5 4 5 4 4 3 1 5 4 3 2 2 1 1 2 2 2 2 2 1
Wind_Direction
272 287 303 287 281 294 277 277 266 284 281 302 303 288 292 61 132 144 170 177 181 171 164 205 195 192 127 78 38 51 49 50 126 198 292 350 8 93 58 34 24 26 25 23
289 272 269 270 270 268 261 263 269 279 279 266 286 15 18 50 147 164 169 182 176 157 174 198 165 134 99 84 49 58 54 44 41 35 30 25 43 43 56 47 42 23 28 28
257 257 270 261 229 233 255 266 266 267 274 30 8 4 12 348 202 176 157 159 171 175 157 164 119 120 99 100 65 47 55 47 37 39 35 27 27 41 33 48 37 40 26 32
268 293 269 263 263 255 257 242 241 276 317 73 53 344 21 359 87 141 165 171 129 114 124 138 131 102 125 95 94 64 34 39 37 41 37 34 28 26 41 28 44 35 35 26
243 250 274 282 269 243 246 257 317 323 2 7 18 331 97 45 69 108 135 126 144 129 119 124 122 128 83 56 91 88 84 30 37 33 38 33 33 20 26 36 37 46 41 35
231 248 257 254 282 44 4 280 50 41 15 343 335 308 20 126 152 129 128 134 146 154 167 159 161 136 120 112 72 99 115 113 2 71 56 28 21 37 22 25 23 51 53 53
232 252 265 275 282 152 238 29 124 267 320 347 321 344 131 164 120 137 146 144 146 161 172 162 153 143 143 132 138 118 87 116 128 131 163 123 8 36 52 29 18 24 57 56
227 246 257 253 46 263 353 190 283 285 296 327 330 142 146 137 154 167 154 144 154 164 140 136 159 166 142 120 129 128 114 103 74 75 47 66 54 30 24 23 30 31 34 36
202 213 38 7 27 351 310 309 342 317 334 345 154 165 164 143 160 171 159 155 167 151 144 152 163 157 131 112 125 120 106 90 63 87 52 41 72 51 31 17 28 22 29 26
276 278 281 228 240 275 324 341 350 359 324 284 178 154 147 157 177 172 164 167 167 149 156 153 111 95 118 128 131 123 109 85 98 75 83 67 46 71 52 31 22 34 17 22
270 283 273 280 308 12 338 329 310 219 288 261 181 168 165 182 188 184 169 153 157 156 157 153 153 124 128 140 143 117 105 87 81 60 34 97 85 38 91 61 48 53 29 31
251 256 264 268 317 303 293 301 296 267 219 224 216 168 169 178 184 179 159 156 166 162 154 147 137 137 138 130 113 124 106 86 23 53 47 37 47 139 74 114 89 86 71 58
278 283 279 266 234 238 238 275 247 244 218 196 193 166 165 167 172 168 156 163 174 152 149 140 130 110 77 56 58 48 82 70 99 49 32 30 25 21 83 153 130 99 80 51
275 276 266 268 257 248 234 212 156 214 218 196 183 158 153 158 147 164 154 164 167 148 138 136 105 90 71 76 88 98 109 70 53 58 45 15 10 12 29 15 36 154 111 59
267 276 281 281 285 287 145 169 174 205 187 186 141 135 128 136 154 145 138 137 116 118 105 104 114 125 133 138 140 118 115 69 349 71 95 275 318 13 30 15 13 37 9 54
257 263 268 252 248 209 161 181 184 193 160 156 137 127 137 155 149 146 142 137 153 147 140 119 133 147 134 116 134 148 112 113 104 19 64 23 15 12 27 21 1 26 60 45
251 260 271 277 201 192 187 170 173 160 145 149 134 135 150 132 107 95 88 84 95 98 113 124 121 101 112 151 232 106 125 131 124 270 67 50 357 20 17 23 12 24 74 125
257 263 245 261 185 170 150 138 141 141 148 139 140 129 124 134 129 119 111 107 104 111 129 127 129 128 159 157 277 97 107 100 91 58 60 55 11 17 25 19 15 15 10 37
262 232 238 160 166 148 140 145 142 132 118 124 129 133 134 126 129 128 124 124 135 145 142 140 154 162 153 126 193 122 107 100 107 98 33 162 225 23 44 43 22 355 12 11
287 79 101 99 95 126 117 107 117 120 127 124 120 128 129 132 138 138 138 154 171 162 145 150 170 164 132 147 260 112 112 108 100 103 83 342 70 345 30 73 39 11 13 10
61 72 84 91 89 91 107 128 127 130 133 132 141 146 142 142 144 145 153 169 123 136 144 157 181 127 142 142 170 98 106 104 84 79 81 51 61 22 24 39 30 12 11 6
79 87 95 98 101 103 111 118 121 129 137 144 144 144 138 143 151 165 191 155 147 147 146 172 150 135 114 164 109 119 118 99 81 55 82 77 39 18 24 31 33 24 353 9
92 98 101 105 111 112 111 117 128 138 149 151 146 147 155 157 166 173 167 141 140 146 164 102 110 107 131 111 109 106 101 112 131 119 109 71 41 54 15 23 33 339 10 16
111 114 109 108 113 115 118 124 130 134 131 131 142 156 155 158 172 179 129 136 140 140 107 125 121 122 153 116 126 122 157 147 150 141 91 144 23 69 36 26 37 17 19 18
116 120 130 141 141 137 140 144 138 140 148 148 156 168 158 165 163 124 128 121 114 114 110 111 117 140 143 139 146 157 148 70 51 16 86 57 53 54 17 45 39 34 342 286
146 146 153 161 133 143 144 149 143 153 141 143 148 153 133 102 110 113 115 122 117 118 125 140 152 181 129 125 128 135 127 121 155 103 42 340 74 10 56 62 12 328 8 21
133 136 141 117 135 141 155 156 150 151 147 149 146 142 123 121 118 118 127 129 130 126 147 155 152 159 126 138 127 127 165 94 49 33 67 55 64 26 67 50 17 21 351 323